Portland Troutdale, OR

5:09 PM PDT on July 20, 2017 (GMT -0700)
Portland-Troutdale

Weather History for KTTD - November, 2013

Change the Weather History Date:

Sunday, November 3, 2013

  Actual Average Record
Temperature  
Mean Temperature 48 °F 49 °F  
Max Temperature 52 °F 57 °F 75 °F (1975)
Min Temperature 43 °F 41 °F 24 °F (2002)
Degree Days  
Heating Degree Days 17 16  
Month to date heating degree days 42 48  
Cooling Degree Days 0 0  
Month to date cooling degree days 0 0  
Moisture  
Dew Point 42 °F    
Average Humidity 78    
Maximum Humidity 93    
Minimum Humidity 63    
Precipitation  
Precipitation 0.21 in 0.22 in 0.85 in (1984)
Month to date precipitation 1.11 0.64  
Year to date precipitation 23.64 33.16  
Snow  
Snow 0.00 in - - ()
Snow Depth 0.00 in    
Sea Level Pressure  
Sea Level Pressure 30.11 in    
Wind  
Wind Speed 6 mph (SW)    
Max Wind Speed 15 mph    
Max Gust Speed 23 mph    
Visibility 9 miles    
Events Rain    
T = Trace of Precipitation, MM = Missing Value Source: NWS Daily Summary

Daily Weather History Graph

Daily Weather History Graph

Search for Another Location

Airport or City:

Trip Planner

Search our weather history database for the weather conditions in past years. The results will help you decide how hot, cold, wet, or windy it might be!

Date:

Astronomy

Nov. 03, 2013 Rise Set
Actual Time 6:52 AM PST 4:53 PM PST
Civil Twilight 6:21 AM PST 5:24 PM PST
Nautical Twilight 5:46 AM PST 5:59 PM PST
Astronomical Twilight 5:11 AM PST 6:33 PM PST
Moon 7:03 AM PST (11/3) 5:10 PM PST (11/3)
Length of Visible Light 11h 02m
Length of Day
10h 00m
New Moon, 0% of the Moon is Illuminated
Nov 3
New Moon
Nov 9
First Quarter
Nov 17
Full
Nov 25
Last Quarter
Dec 2
New

Hourly Weather History & Observations

Time (PST) Temp. Windchill Dew Point Humidity Pressure Visibility Wind Dir Wind Speed Gust Speed Precip Events Conditions
12:53 AM 46.0 °F 41.4 °F 39.0 °F 76% 30.05 in 10.0 mi SW 9.2 mph - 0.00 in   Mostly Cloudy
1:53 AM 46.0 °F 42.5 °F 39.0 °F 76% 30.07 in 10.0 mi WSW 6.9 mph - 0.00 in   Scattered Clouds
1:53 AM 45.0 °F 40.1 °F 41.0 °F 86% 30.07 in 10.0 mi SSW 9.2 mph - 0.00 in   Scattered Clouds
2:53 AM 44.1 °F 42.5 °F 39.9 °F 85% 30.07 in 10.0 mi Variable 3.5 mph - 0.00 in   Mostly Cloudy
3:53 AM 45.0 °F - 39.9 °F 82% 30.08 in 10.0 mi Calm Calm - N/A   Mostly Cloudy
4:53 AM 45.0 °F 42.6 °F 39.9 °F 82% 30.09 in 10.0 mi SW 4.6 mph - 0.00 in   Overcast
5:53 AM 45.0 °F - 39.9 °F 82% 30.09 in 10.0 mi Calm Calm - 0.00 in   Overcast
6:53 AM 45.0 °F - 39.0 °F 80% 30.12 in 10.0 mi Calm Calm - 0.00 in   Overcast
7:53 AM 45.0 °F 40.1 °F 39.9 °F 82% 30.13 in 10.0 mi SSW 9.2 mph - 0.01 in   Overcast
8:53 AM 46.0 °F 41.4 °F 39.9 °F 79% 30.14 in 10.0 mi SSW 9.2 mph - 0.00 in   Overcast
9:53 AM 48.0 °F - 41.0 °F 77% 30.14 in 10.0 mi SSW 11.5 mph - N/A   Mostly Cloudy
10:53 AM 50.0 °F - 42.1 °F 74% 30.14 in 10.0 mi SSW 10.4 mph - N/A   Partly Cloudy
11:53 AM 51.1 °F - 39.9 °F 66% 30.13 in 10.0 mi SW 12.7 mph - N/A   Mostly Cloudy
12:53 PM 50.0 °F - 41.0 °F 71% 30.12 in 10.0 mi SW 12.7 mph - 0.00 in Rain Light Rain
1:53 PM 52.0 °F - 39.9 °F 63% 30.11 in 10.0 mi SW 12.7 mph - 0.00 in   Overcast
2:20 PM 51.8 °F - 39.2 °F 62% 30.11 in 10.0 mi WSW 10.4 mph - 0.00 in Rain Light Rain
2:53 PM 46.9 °F - 41.0 °F 80% 30.13 in 5.0 mi Calm Calm - 0.09 in Rain Light Rain
3:53 PM 48.9 °F - 43.0 °F 80% 30.12 in 8.0 mi Calm Calm - 0.00 in   Mostly Cloudy
4:53 PM 48.0 °F - 45.0 °F 89% 30.12 in 7.0 mi Calm Calm - 0.01 in Rain Light Rain
5:40 PM 46.4 °F 45.2 °F 44.6 °F 93% 30.11 in 4.0 mi North 3.5 mph - 0.05 in Rain Rain
5:53 PM 46.9 °F - 44.1 °F 90% 30.11 in 9.0 mi SSW 3.5 mph - 0.06 in Rain Light Rain
6:49 PM 46.4 °F - 44.6 °F 93% 30.12 in 10.0 mi Calm Calm - 0.00 in   Overcast
6:53 PM 48.0 °F - 44.1 °F 86% 30.12 in 10.0 mi Calm Calm - 0.00 in   Overcast
7:46 PM 48.2 °F - 44.6 °F 87% 30.12 in 10.0 mi Calm Calm - 0.02 in Rain Light Rain
7:53 PM 46.9 °F - 44.1 °F 90% 30.12 in 10.0 mi SSW 4.6 mph - 0.02 in Rain Light Rain
8:53 PM 46.9 °F - 43.0 °F 86% 30.13 in 10.0 mi SSW 6.9 mph - 0.00 in   Overcast
9:53 PM 46.9 °F - 43.0 °F 86% 30.14 in 10.0 mi WSW 5.8 mph - 0.00 in   Overcast
10:53 PM 46.0 °F 41.4 °F 43.0 °F 89% 30.14 in 10.0 mi SSW 9.2 mph - 0.02 in Rain Light Rain